SCX1982 KDTW-KMSP

Flight info

Callsign SCX1982
Flight time 1h 23m
Altitude 38000
Route MIGGY3 SLLAP Q440 IDIOM MUSCL4
Aircraft B738/M-SDE2E3FGHIRWXY/LB1

Departure

Time 2026-05-04 00:09
Airport Detroit Metropolitan Wayne County Airport (KDTW)

Arrival

Time 2026-05-04 01:33
Airport Minneapolis–Saint Paul International Airport / Wold–Chamberlain Field (KMSP)
Time Latitude Longitude Altitude Speed Heading
2026-05-03 23:55 42.22450 -83.35015 645 ft 0 kts 119°
2026-05-03 23:59 42.22451 -83.35018 645 ft 2 kts 120°
2026-05-03 23:59 42.22461 -83.35039 645 ft 3 kts 128°
2026-05-04 00:00 42.22475 -83.35059 645 ft 3 kts 144°
2026-05-04 00:00 42.22491 -83.35071 648 ft 3 kts 174°
2026-05-04 00:00 42.22504 -83.35070 646 ft 1 kts 208°
2026-05-04 00:00 42.22505 -83.35070 646 ft 1 kts 209°
2026-05-04 00:03 42.22465 -83.35100 647 ft 10 kts 209°
2026-05-04 00:03 42.22410 -83.35182 647 ft 14 kts 234°
2026-05-04 00:03 42.22344 -83.35287 646 ft 17 kts 220°
2026-05-04 00:03 42.22235 -83.35389 645 ft 19 kts 208°
2026-05-04 00:04 42.22121 -83.35475 645 ft 18 kts 209°
2026-05-04 00:04 42.22010 -83.35556 645 ft 18 kts 209°
2026-05-04 00:04 42.21914 -83.35576 645 ft 14 kts 152°
2026-05-04 00:04 42.21836 -83.35501 645 ft 15 kts 129°
2026-05-04 00:05 42.21824 -83.35344 644 ft 21 kts 88°
2026-05-04 00:05 42.21827 -83.35137 645 ft 22 kts 89°
2026-05-04 00:05 42.21830 -83.34934 645 ft 21 kts 89°
2026-05-04 00:05 42.21834 -83.34748 645 ft 18 kts 89°
2026-05-04 00:06 42.21836 -83.34584 646 ft 17 kts 89°
2026-05-04 00:06 42.21902 -83.34463 645 ft 17 kts 28°
2026-05-04 00:06 42.22006 -83.34389 646 ft 21 kts 30°
2026-05-04 00:06 42.22144 -83.34287 645 ft 26 kts 28°
2026-05-04 00:07 42.22310 -83.34166 646 ft 26 kts 27°
2026-05-04 00:07 42.22467 -83.34051 647 ft 25 kts 28°
2026-05-04 00:07 42.22613 -83.33944 646 ft 23 kts 28°
2026-05-04 00:07 42.22750 -83.33843 647 ft 22 kts 30°
2026-05-04 00:08 42.22841 -83.33773 644 ft 16 kts 36°
2026-05-04 00:08 42.22841 -83.33665 645 ft 13 kts 121°
2026-05-04 00:08 42.22763 -83.33664 645 ft 13 kts 210°
2026-05-04 00:08 42.22542 -83.33828 646 ft 75 kts 208°
2026-05-04 00:09 42.21845 -83.34347 665 ft 146 kts 213°
2026-05-04 00:09 42.20885 -83.35016 1295 ft 164 kts 211°
2026-05-04 00:09 42.19829 -83.35773 2118 ft 184 kts 212°
2026-05-04 00:09 42.18912 -83.36995 2619 ft 199 kts 241°
2026-05-04 00:10 42.18352 -83.38790 3058 ft 209 kts 246°
2026-05-04 00:10 42.17761 -83.40591 3781 ft 213 kts 245°
2026-05-04 00:10 42.17119 -83.42492 4196 ft 230 kts 245°
2026-05-04 00:10 42.16437 -83.44485 4968 ft 237 kts 246°
2026-05-04 00:11 42.15738 -83.46512 5855 ft 240 kts 246°
2026-05-04 00:11 42.15024 -83.48573 6580 ft 245 kts 246°
2026-05-04 00:11 42.14300 -83.50656 6924 ft 248 kts 246°
2026-05-04 00:11 42.13698 -83.52832 7056 ft 250 kts 263°
2026-05-04 00:12 42.13842 -83.55200 7762 ft 253 kts 283°
2026-05-04 00:12 42.14549 -83.57335 8672 ft 256 kts 301°
2026-05-04 00:12 42.15609 -83.59290 9519 ft 261 kts 305°
2026-05-04 00:12 42.16737 -83.61227 10302 ft 264 kts 305°
2026-05-04 00:13 42.17891 -83.63226 10759 ft 281 kts 305°
2026-05-04 00:13 42.19132 -83.65412 10950 ft 305 kts 305°
2026-05-04 00:13 42.20461 -83.67771 11243 ft 324 kts 306°
2026-05-04 00:13 42.22070 -83.69967 11555 ft 339 kts 323°
2026-05-04 00:14 42.24202 -83.71234 11686 ft 333 kts 340°
2026-05-04 00:14 42.26495 -83.71913 11750 ft 345 kts 346°
2026-05-04 00:14 42.28904 -83.72440 12324 ft 353 kts 347°
2026-05-04 00:14 42.31340 -83.72937 13136 ft 355 kts 347°
2026-05-04 00:15 42.33789 -83.73445 13885 ft 357 kts 347°
2026-05-04 00:15 42.36256 -83.73977 14536 ft 360 kts 347°
2026-05-04 00:15 42.38740 -83.74528 15222 ft 363 kts 346°
2026-05-04 00:15 42.41234 -83.75093 15908 ft 365 kts 346°
2026-05-04 00:16 42.43747 -83.75669 16622 ft 366 kts 346°
2026-05-04 00:16 42.46259 -83.76246 17400 ft 366 kts 346°
2026-05-04 00:16 42.48778 -83.76828 18088 ft 368 kts 346°
2026-05-04 00:16 42.51312 -83.77415 18663 ft 372 kts 346°
2026-05-04 00:17 42.53869 -83.78006 19220 ft 374 kts 346°
2026-05-04 00:17 42.56450 -83.78604 19779 ft 377 kts 346°
2026-05-04 00:17 42.59036 -83.79213 20345 ft 379 kts 344°
2026-05-04 00:17 42.61615 -83.79980 20885 ft 380 kts 342°
2026-05-04 00:18 42.64194 -83.80841 21426 ft 382 kts 341°
2026-05-04 00:18 42.66785 -83.81720 21960 ft 385 kts 342°
2026-05-04 00:18 42.69397 -83.82592 22480 ft 388 kts 342°
2026-05-04 00:18 42.72030 -83.83453 22998 ft 391 kts 342°
2026-05-04 00:19 42.74684 -83.84315 23488 ft 393 kts 342°
2026-05-04 00:19 42.77328 -83.85295 23869 ft 393 kts 334°
2026-05-04 00:19 42.79642 -83.87112 24275 ft 388 kts 319°
2026-05-04 00:19 42.81640 -83.89580 24713 ft 388 kts 314°
2026-05-04 00:20 42.83570 -83.92176 25075 ft 391 kts 313°
2026-05-04 00:20 42.85497 -83.94802 25449 ft 393 kts 313°
2026-05-04 00:20 42.87443 -83.97439 25845 ft 395 kts 313°
2026-05-04 00:20 42.89408 -84.00078 26221 ft 397 kts 314°
2026-05-04 00:21 42.91386 -84.02716 26587 ft 399 kts 314°
2026-05-04 00:21 42.92706 -84.04472 26822 ft 401 kts 314°
2026-05-04 00:21 42.94708 -84.07133 27168 ft 403 kts 314°
2026-05-04 00:21 42.96725 -84.09813 27516 ft 405 kts 314°
2026-05-04 00:22 42.99434 -84.13417 27971 ft 408 kts 314°
2026-05-04 00:22 43.00781 -84.15213 28189 ft 409 kts 314°
2026-05-04 00:22 43.02823 -84.17937 28509 ft 411 kts 314°
2026-05-04 00:22 43.04875 -84.20676 28820 ft 413 kts 314°
2026-05-04 00:23 43.06933 -84.23427 29122 ft 415 kts 314°
2026-05-04 00:23 43.08998 -84.26189 29515 ft 415 kts 314°
2026-05-04 00:23 43.11060 -84.28951 29925 ft 414 kts 314°
2026-05-04 00:23 43.13115 -84.31706 30270 ft 413 kts 314°
2026-05-04 00:24 43.15167 -84.34459 30620 ft 412 kts 314°
2026-05-04 00:24 43.17214 -84.37210 30952 ft 412 kts 314°
2026-05-04 00:24 43.19260 -84.39960 31290 ft 411 kts 314°
2026-05-04 00:24 43.21298 -84.42702 31630 ft 410 kts 314°
2026-05-04 00:25 43.23327 -84.45440 31955 ft 409 kts 313°
2026-05-04 00:25 43.25124 -84.48445 32250 ft 407 kts 302°
2026-05-04 00:25 43.26596 -84.51756 32596 ft 406 kts 300°
2026-05-04 00:25 43.28024 -84.55096 32928 ft 405 kts 300°
2026-05-04 00:26 43.29450 -84.58433 33233 ft 405 kts 300°
2026-05-04 00:26 43.30881 -84.61747 33576 ft 404 kts 301°
2026-05-04 00:26 43.32328 -84.65064 33791 ft 405 kts 301°
2026-05-04 00:26 43.33785 -84.68382 33997 ft 406 kts 301°
2026-05-04 00:27 43.35250 -84.71705 34184 ft 407 kts 301°
2026-05-04 00:27 43.36715 -84.75030 34415 ft 407 kts 301°
2026-05-04 00:27 43.38178 -84.78350 34659 ft 406 kts 301°
2026-05-04 00:27 43.39641 -84.81677 34871 ft 406 kts 301°
2026-05-04 00:28 43.41103 -84.85005 35076 ft 407 kts 301°
2026-05-04 00:28 43.42547 -84.88294 35290 ft 407 kts 301°
2026-05-04 00:28 43.44005 -84.91621 35512 ft 406 kts 301°
2026-05-04 00:28 43.45437 -84.94978 35711 ft 407 kts 298°
2026-05-04 00:29 43.46683 -84.98470 35904 ft 407 kts 295°
2026-05-04 00:29 43.47828 -85.02037 36118 ft 407 kts 294°
2026-05-04 00:29 43.48941 -85.05619 36297 ft 407 kts 294°
2026-05-04 00:29 43.50058 -85.09207 36451 ft 408 kts 294°
2026-05-04 00:30 43.51187 -85.12791 36635 ft 408 kts 294°
2026-05-04 00:30 43.52326 -85.16367 36855 ft 407 kts 294°
2026-05-04 00:30 43.53472 -85.19934 37069 ft 407 kts 294°
2026-05-04 00:30 43.54568 -85.23332 37162 ft 409 kts 294°
2026-05-04 00:31 43.55726 -85.26922 37315 ft 409 kts 294°
2026-05-04 00:31 43.56882 -85.30501 37523 ft 409 kts 294°
2026-05-04 00:31 43.58035 -85.34078 37720 ft 408 kts 294°
2026-05-04 00:31 43.59188 -85.37659 37803 ft 409 kts 294°
2026-05-04 00:32 43.61503 -85.44870 37766 ft 411 kts 294°
2026-05-04 00:32 43.63806 -85.52060 37772 ft 408 kts 294°
2026-05-04 00:33 43.67227 -85.62782 37778 ft 405 kts 294°
2026-05-04 00:34 43.69492 -85.69905 37779 ft 405 kts 294°
2026-05-04 00:34 43.71751 -85.77024 37781 ft 404 kts 294°
2026-05-04 00:35 43.74026 -85.84074 37787 ft 404 kts 295°
2026-05-04 00:35 43.76342 -85.91161 37794 ft 405 kts 295°
2026-05-04 00:36 43.78663 -85.98286 37778 ft 406 kts 295°
2026-05-04 00:36 43.80979 -86.05434 37777 ft 408 kts 295°
2026-05-04 00:37 43.83302 -86.12627 37780 ft 409 kts 295°
2026-05-04 00:37 43.85622 -86.19835 37748 ft 411 kts 295°
2026-05-04 00:38 43.87946 -86.27071 37745 ft 411 kts 295°
2026-05-04 00:38 43.90268 -86.34325 37740 ft 412 kts 295°
2026-05-04 00:39 43.92592 -86.41604 37741 ft 413 kts 295°
2026-05-04 00:39 43.94899 -86.48849 37739 ft 413 kts 295°
2026-05-04 00:40 43.97218 -86.56151 37743 ft 413 kts 295°
2026-05-04 00:40 43.99544 -86.63499 37747 ft 413 kts 295°
2026-05-04 00:41 44.01831 -86.70740 37738 ft 412 kts 295°
2026-05-04 00:41 44.04122 -86.78019 37738 ft 410 kts 295°
2026-05-04 00:42 44.06400 -86.85272 37731 ft 409 kts 295°
2026-05-04 00:42 44.08665 -86.92505 37729 ft 407 kts 295°
2026-05-04 00:43 44.10919 -86.99724 37721 ft 406 kts 295°
2026-05-04 00:43 44.13160 -87.06919 37716 ft 404 kts 295°
2026-05-04 00:44 44.15390 -87.14101 37711 ft 403 kts 295°
2026-05-04 00:44 44.17608 -87.21263 37710 ft 402 kts 295°
2026-05-04 00:45 44.19818 -87.28419 37707 ft 402 kts 294°
2026-05-04 00:45 44.22022 -87.35576 37683 ft 402 kts 294°
2026-05-04 00:46 44.24222 -87.42742 37688 ft 402 kts 294°
2026-05-04 00:46 44.26423 -87.49926 37696 ft 403 kts 294°
2026-05-04 00:47 44.28621 -87.57125 37691 ft 404 kts 294°
2026-05-04 00:47 44.30821 -87.64349 37682 ft 405 kts 294°
2026-05-04 00:48 44.33011 -87.71558 37650 ft 406 kts 294°
2026-05-04 00:48 44.35156 -87.78644 37668 ft 407 kts 294°
2026-05-04 00:49 44.37357 -87.85934 37677 ft 407 kts 294°
2026-05-04 00:49 44.39560 -87.93247 37670 ft 408 kts 294°
2026-05-04 00:50 44.41758 -88.00568 37678 ft 409 kts 294°
2026-05-04 00:50 44.43957 -88.07914 37670 ft 409 kts 294°
2026-05-04 00:51 44.46147 -88.15253 37655 ft 408 kts 294°
2026-05-04 00:51 44.48326 -88.22571 37663 ft 406 kts 294°
2026-05-04 00:52 44.50488 -88.29869 37664 ft 405 kts 293°
2026-05-04 00:52 44.52303 -88.37338 37670 ft 405 kts 289°
2026-05-04 00:53 44.53932 -88.44879 37695 ft 404 kts 289°
2026-05-04 00:53 44.55566 -88.52395 37693 ft 402 kts 289°
2026-05-04 00:54 44.57217 -88.59880 37698 ft 401 kts 289°
2026-05-04 00:54 44.58871 -88.67342 37702 ft 400 kts 289°
2026-05-04 00:55 44.60521 -88.74799 37708 ft 400 kts 289°
2026-05-04 00:55 44.62168 -88.82267 37711 ft 401 kts 289°
2026-05-04 00:56 44.63800 -88.89693 37697 ft 401 kts 289°
2026-05-04 00:56 44.65440 -88.97182 37699 ft 401 kts 289°
2026-05-04 00:57 44.67077 -89.04688 37693 ft 402 kts 289°
2026-05-04 00:57 44.68711 -89.12207 37699 ft 402 kts 289°
2026-05-04 00:58 44.70343 -89.19739 37700 ft 403 kts 289°
2026-05-04 00:58 44.71970 -89.27279 37691 ft 403 kts 288°
2026-05-04 00:59 44.73593 -89.34829 37705 ft 403 kts 288°
2026-05-04 00:59 44.75214 -89.42395 37711 ft 404 kts 288°
2026-05-04 01:00 44.76831 -89.49969 37712 ft 404 kts 288°
2026-05-04 01:00 44.78443 -89.57550 37714 ft 404 kts 288°
2026-05-04 01:01 44.80051 -89.65137 37714 ft 404 kts 288°
2026-05-04 01:01 44.81654 -89.72731 37710 ft 404 kts 288°
2026-05-04 01:02 44.83251 -89.80324 37715 ft 404 kts 288°
2026-05-04 01:02 44.84843 -89.87920 37709 ft 404 kts 288°
2026-05-04 01:03 44.86428 -89.95511 37713 ft 404 kts 288°
2026-05-04 01:03 44.88009 -90.03107 37382 ft 408 kts 288°
2026-05-04 01:03 44.88805 -90.06948 37031 ft 405 kts 288°
2026-05-04 01:04 44.89395 -90.10834 36534 ft 403 kts 281°
2026-05-04 01:04 44.89740 -90.14735 36118 ft 400 kts 279°
2026-05-04 01:04 44.90035 -90.18559 35749 ft 395 kts 279°
2026-05-04 01:04 44.90329 -90.22395 35331 ft 391 kts 280°
2026-05-04 01:05 44.90631 -90.26193 34932 ft 388 kts 280°
2026-05-04 01:05 44.90943 -90.29954 34528 ft 384 kts 281°
2026-05-04 01:05 44.91259 -90.33676 34153 ft 381 kts 281°
2026-05-04 01:05 44.91576 -90.37370 33769 ft 378 kts 281°
2026-05-04 01:06 44.91896 -90.41083 33295 ft 374 kts 281°
2026-05-04 01:06 44.92204 -90.44660 32912 ft 370 kts 281°
2026-05-04 01:06 44.92512 -90.48249 32515 ft 367 kts 281°
2026-05-04 01:06 44.92817 -90.51808 32153 ft 363 kts 282°
2026-05-04 01:07 44.93118 -90.55339 31761 ft 360 kts 282°
2026-05-04 01:07 44.93414 -90.58828 31389 ft 357 kts 282°
2026-05-04 01:07 44.93708 -90.62290 31022 ft 354 kts 282°
2026-05-04 01:07 44.93900 -90.64573 30783 ft 352 kts 282°
2026-05-04 01:08 44.94187 -90.67990 30425 ft 350 kts 282°
2026-05-04 01:08 44.94472 -90.71397 29987 ft 350 kts 283°
2026-05-04 01:08 44.94758 -90.74805 29564 ft 349 kts 283°
2026-05-04 01:08 44.95040 -90.78193 29122 ft 346 kts 282°
2026-05-04 01:09 44.95317 -90.81543 28774 ft 341 kts 282°
2026-05-04 01:09 44.95591 -90.84855 28413 ft 338 kts 282°
2026-05-04 01:09 44.95860 -90.88126 28059 ft 334 kts 282°
2026-05-04 01:09 44.96127 -90.91368 27709 ft 331 kts 282°
2026-05-04 01:10 44.96390 -90.94575 27361 ft 328 kts 282°
2026-05-04 01:10 44.96651 -90.97760 27021 ft 326 kts 282°
2026-05-04 01:10 44.96910 -91.00933 26678 ft 324 kts 282°
2026-05-04 01:10 44.97169 -91.04103 26338 ft 328 kts 282°
2026-05-04 01:11 44.97436 -91.07357 26007 ft 338 kts 281°
2026-05-04 01:11 44.97693 -91.10529 25640 ft 340 kts 281°
2026-05-04 01:11 44.97957 -91.13836 25281 ft 337 kts 281°
2026-05-04 01:11 44.98219 -91.17119 24919 ft 337 kts 281°
2026-05-04 01:12 44.98489 -91.20487 24593 ft 355 kts 281°
2026-05-04 01:12 44.98774 -91.24033 24220 ft 367 kts 280°
2026-05-04 01:12 44.99057 -91.27621 23830 ft 367 kts 280°
2026-05-04 01:12 44.99334 -91.31188 23438 ft 363 kts 280°
2026-05-04 01:13 44.99605 -91.34676 23000 ft 360 kts 280°
2026-05-04 01:13 44.99882 -91.38215 22560 ft 356 kts 279°
2026-05-04 01:13 45.00150 -91.41665 22164 ft 351 kts 279°
2026-05-04 01:13 45.00411 -91.45037 21762 ft 348 kts 279°
2026-05-04 01:14 45.00672 -91.48417 21375 ft 345 kts 279°
2026-05-04 01:14 45.00932 -91.51818 21017 ft 342 kts 279°
2026-05-04 01:14 45.01186 -91.55144 20636 ft 339 kts 279°
2026-05-04 01:14 45.01437 -91.58452 20274 ft 338 kts 279°
2026-05-04 01:15 45.01684 -91.61709 19933 ft 338 kts 279°
2026-05-04 01:15 45.01934 -91.65008 19576 ft 338 kts 279°
2026-05-04 01:15 45.02186 -91.68358 19213 ft 338 kts 278°
2026-05-04 01:15 45.02431 -91.71616 18864 ft 338 kts 278°
2026-05-04 01:16 45.02678 -91.74925 18493 ft 338 kts 278°
2026-05-04 01:16 45.02923 -91.78232 18137 ft 338 kts 278°
2026-05-04 01:16 45.03167 -91.81535 17736 ft 337 kts 278°
2026-05-04 01:16 45.03409 -91.84828 17345 ft 336 kts 278°
2026-05-04 01:17 45.03649 -91.88098 16963 ft 333 kts 278°
2026-05-04 01:17 45.03886 -91.91344 16597 ft 330 kts 278°
2026-05-04 01:17 45.04120 -91.94560 16241 ft 328 kts 278°
2026-05-04 01:17 45.04352 -91.97760 15893 ft 325 kts 278°
2026-05-04 01:18 45.04581 -92.00930 15551 ft 323 kts 278°
2026-05-04 01:18 45.04808 -92.04080 15205 ft 321 kts 278°
2026-05-04 01:18 45.05033 -92.07213 14863 ft 319 kts 278°
2026-05-04 01:18 45.05255 -92.10319 14529 ft 317 kts 278°
2026-05-04 01:19 45.05476 -92.13407 14196 ft 315 kts 278°
2026-05-04 01:19 45.05694 -92.16486 13861 ft 314 kts 278°
2026-05-04 01:19 45.05910 -92.19551 13523 ft 313 kts 277°
2026-05-04 01:19 45.05931 -92.22621 13130 ft 315 kts 264°
2026-05-04 01:20 45.05478 -92.25648 12804 ft 314 kts 260°
2026-05-04 01:20 45.04983 -92.28650 12448 ft 313 kts 260°
2026-05-04 01:20 45.04521 -92.31456 12123 ft 312 kts 260°
2026-05-04 01:20 45.04038 -92.34428 11780 ft 308 kts 260°
2026-05-04 01:21 45.03572 -92.37331 11642 ft 297 kts 260°
2026-05-04 01:21 45.03123 -92.40150 11374 ft 291 kts 260°
2026-05-04 01:21 45.02682 -92.42938 11274 ft 280 kts 261°
2026-05-04 01:21 45.02269 -92.45546 11249 ft 273 kts 261°
2026-05-04 01:22 45.01856 -92.48164 11266 ft 274 kts 261°
2026-05-04 01:22 45.01440 -92.50805 11261 ft 276 kts 261°
2026-05-04 01:22 45.01021 -92.53449 11242 ft 276 kts 261°
2026-05-04 01:22 45.00598 -92.56116 10971 ft 279 kts 260°
2026-05-04 01:23 45.00173 -92.58790 10717 ft 279 kts 260°
2026-05-04 01:23 44.99690 -92.61438 10460 ft 279 kts 250°
2026-05-04 01:23 44.98461 -92.63566 10192 ft 288 kts 218°
2026-05-04 01:23 44.96596 -92.64686 9854 ft 293 kts 205°
2026-05-04 01:24 44.94760 -92.65892 9446 ft 290 kts 216°
2026-05-04 01:24 44.93124 -92.67527 9016 ft 288 kts 224°
2026-05-04 01:24 44.91620 -92.69380 8586 ft 287 kts 227°
2026-05-04 01:24 44.90158 -92.71326 8020 ft 289 kts 227°
2026-05-04 01:25 44.88717 -92.73287 7467 ft 287 kts 227°
2026-05-04 01:25 44.87301 -92.75221 7134 ft 277 kts 227°
2026-05-04 01:25 44.85955 -92.77055 7004 ft 261 kts 227°
2026-05-04 01:25 44.84686 -92.78775 6981 ft 247 kts 227°
2026-05-04 01:26 44.83483 -92.80394 7000 ft 231 kts 227°
2026-05-04 01:26 44.82380 -92.81948 6995 ft 221 kts 236°
2026-05-04 01:26 44.81505 -92.83738 6735 ft 226 kts 239°
2026-05-04 01:26 44.80627 -92.85597 6332 ft 227 kts 239°
2026-05-04 01:27 44.79757 -92.87443 5859 ft 226 kts 239°
2026-05-04 01:27 44.78910 -92.89296 5272 ft 222 kts 244°
2026-05-04 01:27 44.78540 -92.91351 4669 ft 216 kts 267°
2026-05-04 01:27 44.78491 -92.93437 4193 ft 208 kts 269°
2026-05-04 01:28 44.78471 -92.95403 4071 ft 199 kts 269°
2026-05-04 01:28 44.78594 -92.97341 3995 ft 200 kts 290°
2026-05-04 01:28 44.79338 -92.98927 3995 ft 192 kts 303°
2026-05-04 01:28 44.80010 -93.00500 3848 ft 184 kts 297°
2026-05-04 01:29 44.80633 -93.02020 3643 ft 172 kts 298°
2026-05-04 01:29 44.81230 -93.03428 3420 ft 165 kts 298°
2026-05-04 01:29 44.81827 -93.04820 3198 ft 166 kts 299°
2026-05-04 01:29 44.82431 -93.06221 2958 ft 167 kts 298°
2026-05-04 01:30 44.83030 -93.07607 2752 ft 164 kts 298°
2026-05-04 01:30 44.83608 -93.08944 2511 ft 155 kts 298°
2026-05-04 01:30 44.84152 -93.10205 2332 ft 147 kts 298°
2026-05-04 01:30 44.84677 -93.11423 2146 ft 145 kts 298°
2026-05-04 01:31 44.85202 -93.12638 1964 ft 145 kts 298°
2026-05-04 01:31 44.85725 -93.13849 1760 ft 146 kts 299°
2026-05-04 01:31 44.86260 -93.15083 1566 ft 149 kts 299°
2026-05-04 01:31 44.86805 -93.16344 1378 ft 149 kts 298°
2026-05-04 01:32 44.87340 -93.17608 1201 ft 152 kts 298°
2026-05-04 01:32 44.87900 -93.18866 966 ft 149 kts 300°
2026-05-04 01:32 44.88423 -93.20085 829 ft 136 kts 300°
2026-05-04 01:32 44.88775 -93.20900 833 ft 56 kts 301°
2026-05-04 01:33 44.88902 -93.21206 838 ft 21 kts 281°
2026-05-04 01:33 44.88855 -93.21327 836 ft 12 kts 227°
2026-05-04 01:33 44.88795 -93.21409 831 ft 12 kts 224°
2026-05-04 01:33 44.88726 -93.21506 833 ft 15 kts 225°
2026-05-04 01:34 44.88653 -93.21609 831 ft 14 kts 225°
2026-05-04 01:34 44.88560 -93.21741 833 ft 25 kts 225°
2026-05-04 01:34 44.88440 -93.21910 837 ft 24 kts 223°
2026-05-04 01:34 44.88325 -93.22066 832 ft 23 kts 217°
2026-05-04 01:35 44.88205 -93.22201 834 ft 22 kts 226°
2026-05-04 01:35 44.88101 -93.22350 836 ft 21 kts 225°
2026-05-04 01:35 44.87997 -93.22496 831 ft 22 kts 225°
2026-05-04 01:35 44.87882 -93.22662 834 ft 26 kts 225°
2026-05-04 01:36 44.87752 -93.22847 831 ft 23 kts 225°
2026-05-04 01:36 44.87650 -93.22900 830 ft 16 kts 160°
2026-05-04 01:36 44.87550 -93.22929 830 ft 15 kts 220°
2026-05-04 01:36 44.87493 -93.23012 828 ft 5 kts 207°
2026-05-04 01:37 44.87463 -93.22989 833 ft 6 kts 115°
2026-05-04 01:37 44.87437 -93.22939 829 ft 5 kts 136°
2026-05-04 01:37 44.87434 -93.22934 831 ft 0 kts 134°